Wind_Speed
10 9 7 6 5 5 5 5 6 6 7 8 9 8 7 7 7 6 4 3 2 2 1 1 1 2 3 4 4 5 6 7 7 8 8 8 8 8 8 7 6 7 7 7 7 7 7 6 6
11 10 9 7 7 6 6 5 6 7 8 9 9 9 8 8 8 7 5 3 2 2 1 0 2 2 3 4 5 6 7 7 7 8 8 8 8 8 7 7 7 7 7 7 7 6 6 6 6
12 11 10 9 8 7 7 7 6 6 7 8 9 9 9 9 8 7 6 4 3 2 2 1 2 3 4 5 6 6 6 6 7 8 8 8 8 7 7 7 7 7 7 7 7 7 6 6 6
14 13 11 10 9 7 8 8 7 6 8 8 8 8 8 8 8 8 6 4 3 2 2 1 2 3 4 5 6 6 6 6 7 7 8 8 8 7 8 8 8 8 7 7 7 7 6 6 6
15 14 12 11 9 8 8 8 7 7 7 8 7 7 8 7 7 7 6 5 3 3 2 2 2 3 4 5 6 6 6 6 7 8 8 8 8 8 8 8 8 8 8 7 7 7 7 7 7
16 14 13 12 11 9 8 9 8 8 7 8 8 8 8 8 7 6 5 4 4 3 3 2 2 3 4 5 5 6 6 6 7 8 8 7 7 8 8 8 9 8 8 7 7 7 7 7 8
16 15 13 12 12 10 9 9 9 8 8 8 8 8 8 8 7 6 6 5 4 3 2 2 2 3 4 5 6 6 7 7 7 7 7 7 7 8 8 9 9 8 8 8 8 8 8 8 8
16 16 15 12 12 10 9 8 9 10 9 9 8 8 9 8 7 7 6 4 3 3 1 1 2 3 3 5 5 6 7 6 6 7 7 7 7 8 9 9 9 8 8 8 8 8 9 9 8
16 16 15 13 12 10 9 8 8 9 9 9 9 9 8 8 8 7 5 4 3 2 1 1 2 3 3 5 6 6 6 6 6 7 8 8 8 9 9 9 9 9 9 9 9 9 9 9 9
16 15 14 13 12 10 10 9 9 8 9 10 9 9 9 9 7 6 5 4 3 2 1 2 3 3 4 5 6 5 5 6 6 7 7 8 9 9 9 10 9 9 9 9 9 9 9 10 9
17 16 14 12 12 12 11 10 10 9 9 9 8 8 8 8 6 5 4 3 3 2 1 1 2 3 4 5 5 5 5 5 6 7 7 8 9 9 10 10 10 9 9 9 9 9 9 9 9
17 17 15 13 12 12 10 10 10 10 10 9 9 8 7 6 7 6 5 3 2 1 0 1 2 3 4 5 4 4 5 6 6 7 7 8 8 9 10 10 10 10 9 9 9 9 9 10 9
16 16 15 13 12 12 11 11 11 10 10 9 9 8 7 6 6 6 5 3 2 0 1 1 2 3 4 5 4 4 5 6 7 7 7 7 8 9 10 10 11 10 9 9 9 9 9 10 10
15 14 14 13 12 11 11 12 11 10 10 9 8 8 8 7 7 6 5 3 2 0 1 1 2 3 3 4 4 4 5 6 7 7 7 7 8 10 10 11 10 10 9 9 9 9 9 10 10
14 14 14 13 13 12 11 12 12 11 9 9 8 8 8 7 7 6 4 3 2 1 1 1 1 2 3 3 4 4 5 5 6 6 7 8 9 10 10 11 11 11 10 10 10 9 9 9 9
15 14 14 13 14 14 13 12 13 11 10 10 9 8 8 7 7 6 5 3 2 1 0 1 1 2 3 3 3 4 4 5 6 6 7 8 9 10 10 10 11 11 11 11 10 10 9 9 9
14 13 14 15 15 14 13 12 12 11 10 10 9 8 8 8 7 6 5 3 3 2 1 0 1 1 2 2 3 3 4 5 5 6 7 8 9 10 10 10 10 11 11 11 11 10 9 9 9
13 13 13 15 13 13 13 13 12 11 11 10 9 9 8 7 7 6 5 4 3 2 1 1 1 1 1 1 2 3 4 4 5 6 7 8 9 10 10 11 11 11 12 11 11 10 9 9 9
11 12 11 12 12 12 12 12 12 11 12 11 10 10 9 8 7 7 6 5 3 3 2 2 2 1 1 1 2 3 3 4 5 5 7 7 8 9 9 10 11 12 12 12 11 10 9 9 9
12 10 9 9 11 11 11 11 12 11 11 12 11 10 10 10 9 8 7 5 5 4 3 3 2 2 2 2 2 2 3 3 4 5 6 7 8 8 8 10 11 12 12 12 11 11 10 9 9
11 10 10 8 8 8 8 9 10 11 11 11 11 11 11 10 10 8 7 7 6 5 4 4 3 3 3 3 3 2 3 3 4 5 6 7 7 7 8 9 10 11 12 12 11 11 10 9 9
9 10 9 7 7 7 7 7 9 9 10 11 11 11 10 10 9 8 7 7 6 6 5 5 4 3 3 3 3 3 3 4 5 6 6 6 7 7 8 9 10 11 12 12 12 11 11 10 9
8 8 7 6 6 6 6 7 6 7 7 9 9 10 9 9 8 8 8 7 6 7 6 6 5 5 4 4 4 4 4 4 5 5 5 6 6 7 8 9 9 10 11 12 12 11 11 10 9
6 7 7 6 6 5 6 7 7 7 7 8 9 9 8 8 8 8 8 7 7 8 7 7 6 5 5 5 5 5 5 4 4 4 4 5 5 6 7 8 9 10 11 12 12 12 11 11 10
7 7 6 5 4 4 5 6 7 8 9 9 10 9 9 8 8 8 7 7 8 8 8 7 7 6 6 6 6 5 5 5 5 4 4 5 5 6 7 8 9 10 11 12 12 12 12 11 10
8 8 6 5 3 4 4 5 5 7 8 9 9 9 9 9 8 8 8 8 8 8 8 8 8 7 7 6 6 6 6 6 5 5 5 5 5 6 7 8 8 9 11 11 12 12 12 11 11
8 8 5 3 1 3 5 5 6 7 7 9 9 9 9 9 9 9 9 9 8 8 8 8 8 7 7 7 7 7 7 7 6 6 5 5 5 6 7 8 8 9 10 11 12 12 12 11 11
8 8 7 5 3 2 3 5 6 6 7 8 10 10 10 9 9 9 9 9 9 8 8 8 7 7 7 7 7 8 8 8 7 7 6 6 6 7 8 8 8 9 10 11 12 13 13 12 12
8 8 8 7 5 4 3 5 7 7 7 8 10 10 10 9 9 9 9 8 8 8 7 7 7 8 8 8 8 8 8 8 8 8 7 7 7 7 8 9 9 9 10 11 12 13 14 14 13
7 8 9 8 7 6 7 7 7 9 9 9 10 10 10 10 10 9 9 9 9 8 8 8 8 8 9 9 9 9 9 8 8 8 7 7 8 8 9 10 10 10 11 12 13 14 14 15 15
Wind_Direction
229 230 231 233 235 238 241 241 236 229 225 221 220 219 216 213 208 212 215 206 220 232 225 270 328 4 8 9 7 4 4 2 2 359 355 353 352 349 345 342 340 339 336 333 329 325 319 307 299
228 229 229 231 233 241 241 241 242 234 227 223 221 216 213 213 214 217 218 213 215 220 217 276 351 4 5 17 18 9 1 0 360 358 356 357 357 355 352 350 346 343 341 338 334 329 326 313 304
226 228 229 233 240 238 238 238 232 235 227 220 212 212 211 217 219 219 219 219 218 227 217 241 343 355 4 11 11 4 360 1 1 360 1 0 359 359 359 355 352 349 348 346 342 338 332 323 315
227 229 228 234 238 237 234 229 227 228 220 210 207 211 208 213 216 221 222 220 222 228 230 255 324 355 6 6 4 358 360 1 360 1 3 2 2 4 3 1 359 356 355 354 349 344 337 328 318
229 230 230 232 236 242 239 227 224 220 221 203 200 203 203 204 210 215 216 213 213 223 233 274 318 346 359 5 1 3 357 356 357 359 3 3 6 8 7 6 1 356 353 351 347 343 337 330 320
227 228 231 230 232 232 236 229 226 223 213 200 198 203 206 207 210 212 214 212 208 222 241 270 314 350 360 359 357 357 358 354 354 358 4 9 12 10 7 4 0 355 351 349 345 341 336 327 320
225 225 229 230 231 227 230 227 221 220 211 201 201 209 208 208 208 213 214 209 210 226 243 268 316 336 343 348 349 352 353 354 357 3 8 12 10 7 3 358 356 354 351 348 345 340 337 332 326
225 225 225 227 226 225 223 223 219 212 209 206 201 207 202 205 208 212 212 211 223 234 241 295 328 340 342 346 348 352 352 354 4 8 8 8 7 4 0 355 353 352 351 349 346 341 337 334 330
223 222 222 219 219 221 218 215 211 210 212 206 201 201 201 203 203 206 207 212 220 230 247 308 334 339 338 342 346 348 350 356 3 8 7 6 5 3 359 355 354 354 353 351 347 344 340 338 334
218 222 219 215 215 215 214 213 208 206 204 199 195 197 200 199 197 202 206 207 208 213 247 313 337 338 337 344 346 345 348 358 1 359 2 4 1 360 359 358 356 355 352 352 350 347 345 342 338
218 221 220 215 217 214 215 215 211 207 204 201 198 197 202 196 195 199 204 199 201 203 250 330 338 339 343 347 348 357 0 0 358 357 0 0 0 1 0 359 357 355 353 352 352 352 349 346 344
217 220 221 217 217 215 217 214 213 207 207 206 206 206 201 201 203 202 201 198 197 201 24 13 356 350 353 352 353 356 357 358 356 356 358 358 0 0 360 358 356 354 354 353 353 352 353 354 351
216 220 220 218 219 216 215 211 211 210 206 205 208 206 202 209 209 204 197 196 198 218 15 6 3 2 356 357 1 0 1 1 1 0 360 1 359 357 357 356 356 356 356 355 356 355 356 357 356
209 213 218 222 222 222 218 213 211 210 206 203 207 207 206 209 206 205 198 201 195 246 330 340 347 1 358 1 3 6 9 8 7 6 5 3 1 359 359 359 358 0 2 3 3 1 1 360 360
207 209 216 220 224 222 218 218 217 213 214 209 208 206 205 206 205 204 200 201 218 259 310 330 337 8 7 7 8 6 4 1 4 7 8 8 6 3 0 0 2 3 5 6 5 4 3 3 3
205 209 216 221 221 220 217 215 212 211 216 214 210 209 206 200 202 205 204 203 217 231 266 352 9 17 14 16 14 11 8 11 13 11 10 11 10 8 6 6 9 10 10 9 7 5 4 5 7
206 213 218 220 217 215 217 217 213 211 218 222 217 212 209 206 205 205 205 208 216 220 230 279 310 347 5 13 12 11 12 16 17 14 13 14 14 13 14 15 15 14 14 12 12 10 8 9 10
207 215 214 217 215 214 215 213 216 217 220 223 220 215 211 211 210 207 212 224 221 221 235 257 272 308 340 5 6 4 5 11 13 12 12 15 16 16 19 20 20 18 16 15 15 14 12 11 11
202 203 210 213 213 216 214 215 218 219 219 221 218 216 213 216 216 213 218 221 220 230 237 249 252 264 301 331 345 352 359 0 3 7 10 13 13 15 19 21 20 19 18 18 17 15 14 14 12
202 202 207 204 209 211 216 220 219 221 218 214 213 216 216 220 221 220 223 225 229 239 241 248 243 254 273 297 311 330 348 353 357 2 5 8 10 12 16 17 17 17 16 15 15 15 15 16 14
205 210 209 207 200 212 219 212 209 214 215 212 213 218 219 221 219 217 222 231 236 241 246 245 247 261 270 281 294 314 337 349 353 356 358 3 5 6 8 10 14 15 14 14 14 13 13 13 14
209 210 210 214 212 211 215 209 210 212 213 214 213 213 219 218 217 218 224 233 241 246 250 244 248 259 265 273 284 304 327 338 343 348 352 358 360 2 5 9 14 15 15 14 13 12 11 11 10
205 208 209 212 215 224 227 229 222 221 216 216 214 213 219 214 217 225 232 238 243 251 253 250 247 257 265 271 278 292 308 318 329 338 346 354 359 2 4 12 14 12 13 13 11 10 9 9 7
192 193 202 215 218 234 234 241 239 223 227 221 220 218 218 213 221 230 235 240 247 253 254 254 256 261 266 268 275 285 295 304 316 329 336 345 353 357 2 8 12 12 10 11 11 10 8 6 4
193 192 190 209 228 236 234 246 251 237 237 232 227 222 224 223 228 230 236 247 250 250 252 255 259 260 263 266 268 276 286 292 302 311 318 329 338 346 354 0 4 5 6 6 7 7 5 2 360
186 188 193 205 218 253 265 268 263 266 246 236 232 230 230 231 232 236 244 250 252 252 253 254 257 261 261 260 263 273 281 283 288 295 304 315 327 337 344 350 353 355 357 359 2 1 359 358 355
187 194 204 201 204 302 307 285 279 271 247 239 237 236 236 232 233 244 249 251 252 253 255 257 257 256 255 259 265 273 275 278 283 287 294 302 312 326 337 341 343 343 346 349 352 354 353 351 349
199 207 210 206 221 253 296 291 287 264 250 249 246 244 240 239 244 246 247 248 249 249 250 251 250 252 259 264 268 272 273 277 280 283 286 292 297 310 323 332 333 335 338 340 343 346 346 345 344
204 209 210 216 227 238 248 260 271 271 262 254 249 247 246 250 251 249 247 246 244 241 243 248 252 257 260 263 267 272 273 275 278 281 280 283 291 304 313 322 325 327 330 334 338 340 340 337 335
216 211 215 224 226 236 252 267 271 275 271 259 251 250 250 249 250 250 250 249 246 245 245 249 253 255 258 262 269 271 274 274 274 276 274 279 287 298 307 315 317 319 321 325 328 331 332 331 329
Height
5870 5871 5872 5874 5875 5875 5874 5875 5875 5876 5877 5878 5879 5880 5881 5882 5885 5888 5887 5886 5887 5888 5888 5888 5888 5888 5887 5887 5887 5886 5886 5885 5884 5883 5882 5881 5880 5879 5878 5877 5876 5876 5875 5874 5873 5873 5872 5872 5872
5869 5870 5872 5873 5873 5874 5874 5874 5875 5875 5876 5877 5878 5879 5880 5882 5884 5885 5885 5886 5887 5888 5888 5888 5888 5888 5888 5887 5887 5886 5886 5885 5884 5883 5882 5881 5880 5879 5878 5877 5876 5875 5874 5873 5873 5872 5871 5871 5870
5867 5869 5871 5872 5872 5873 5873 5873 5874 5874 5875 5876 5878 5879 5881 5882 5883 5884 5885 5886 5887 5887 5888 5888 5888 5888 5887 5887 5886 5886 5885 5885 5884 5883 5882 5881 5880 5878 5878 5877 5875 5874 5873 5872 5872 5871 5870 5870 5870
5866 5868 5870 5870 5870 5871 5872 5873 5873 5873 5874 5875 5878 5879 5880 5881 5883 5884 5885 5886 5887 5887 5888 5888 5888 5888 5887 5887 5886 5886 5885 5884 5884 5883 5881 5880 5879 5878 5877 5876 5875 5874 5873 5872 5871 5870 5870 5869 5869
5864 5866 5868 5868 5869 5870 5871 5871 5872 5873 5874 5876 5878 5879 5880 5881 5882 5883 5885 5886 5887 5887 5888 5888 5888 5888 5887 5887 5886 5886 5885 5884 5883 5882 5881 5880 5879 5878 5877 5876 5874 5873 5872 5871 5870 5869 5869 5868 5867
5862 5864 5866 5866 5868 5869 5870 5871 5872 5873 5874 5875 5877 5879 5880 5881 5882 5883 5885 5886 5886 5887 5888 5888 5888 5887 5887 5887 5886 5886 5885 5884 5883 5882 5881 5880 5879 5878 5877 5875 5874 5873 5872 5871 5870 5869 5868 5867 5866
5861 5862 5863 5865 5866 5867 5869 5870 5871 5872 5874 5875 5877 5878 5879 5881 5882 5883 5884 5885 5886 5887 5888 5888 5888 5887 5887 5887 5886 5885 5884 5883 5882 5881 5880 5879 5878 5877 5876 5875 5873 5872 5871 5870 5869 5868 5867 5866 5865
5858 5861 5861 5863 5864 5866 5868 5869 5870 5872 5873 5875 5877 5878 5879 5881 5882 5883 5884 5885 5886 5886 5887 5888 5887 5887 5887 5886 5886 5885 5884 5883 5882 5881 5880 5879 5878 5877 5876 5874 5873 5871 5870 5869 5868 5867 5865 5864 5863
5856 5859 5859 5861 5863 5865 5866 5868 5870 5871 5872 5874 5876 5878 5879 5880 5882 5883 5884 5885 5886 5886 5887 5887 5887 5887 5887 5886 5885 5885 5884 5883 5882 5881 5880 5879 5878 5877 5875 5874 5872 5871 5870 5868 5867 5865 5864 5863 5862
5854 5856 5857 5860 5862 5864 5865 5867 5869 5871 5872 5874 5875 5877 5878 5880 5881 5883 5884 5885 5885 5886 5886 5887 5887 5886 5886 5886 5885 5884 5884 5883 5882 5881 5880 5879 5878 5876 5875 5873 5872 5870 5869 5867 5866 5865 5863 5862 5860
5852 5854 5856 5858 5861 5863 5864 5866 5868 5870 5872 5874 5875 5877 5878 5880 5881 5883 5884 5884 5885 5886 5886 5886 5886 5886 5886 5885 5885 5884 5883 5883 5882 5881 5880 5879 5877 5876 5874 5873 5871 5870 5868 5867 5865 5864 5862 5861 5859
5851 5852 5855 5857 5859 5862 5864 5866 5868 5869 5872 5873 5874 5876 5878 5880 5881 5882 5883 5884 5885 5885 5886 5886 5886 5886 5885 5885 5884 5884 5883 5882 5881 5880 5879 5878 5877 5876 5874 5872 5871 5869 5867 5866 5864 5863 5861 5860 5858
5849 5851 5854 5856 5858 5861 5863 5865 5867 5869 5871 5873 5874 5876 5878 5880 5881 5882 5883 5884 5885 5885 5886 5886 5886 5886 5885 5885 5884 5884 5883 5882 5881 5880 5879 5878 5876 5875 5873 5872 5870 5868 5867 5865 5864 5862 5861 5859 5858
5847 5850 5852 5855 5858 5860 5862 5864 5867 5868 5870 5872 5874 5876 5877 5879 5881 5882 5883 5884 5884 5885 5885 5886 5886 5885 5885 5885 5884 5884 5883 5882 5881 5880 5879 5877 5876 5874 5873 5871 5870 5868 5866 5864 5863 5862 5860 5859 5857
5846 5849 5852 5854 5857 5859 5862 5864 5865 5867 5869 5872 5874 5875 5877 5879 5880 5881 5883 5883 5884 5885 5885 5885 5885 5885 5885 5884 5884 5883 5883 5882 5881 5880 5879 5877 5876 5874 5872 5871 5869 5868 5866 5864 5863 5861 5860 5859 5857
5845 5848 5851 5853 5855 5858 5862 5863 5865 5866 5869 5871 5873 5875 5876 5878 5879 5881 5882 5883 5884 5884 5885 5885 5885 5885 5885 5884 5884 5883 5883 5882 5881 5880 5878 5877 5876 5874 5872 5871 5869 5867 5866 5864 5862 5861 5860 5858 5857
5844 5847 5849 5852 5854 5856 5860 5862 5864 5866 5868 5870 5872 5874 5876 5877 5879 5880 5881 5882 5883 5883 5884 5884 5885 5885 5885 5884 5884 5883 5883 5882 5881 5880 5879 5877 5876 5874 5873 5871 5869 5867 5866 5864 5862 5861 5860 5858 5857
5844 5846 5848 5851 5853 5855 5857 5860 5863 5865 5867 5869 5871 5872 5875 5876 5878 5879 5880 5881 5882 5883 5883 5884 5884 5884 5884 5884 5884 5883 5883 5882 5881 5880 5879 5877 5876 5875 5873 5871 5870 5868 5866 5864 5862 5861 5859 5858 5857
5842 5845 5847 5850 5852 5854 5856 5859 5861 5864 5866 5868 5869 5871 5873 5875 5877 5878 5880 5881 5881 5882 5883 5883 5884 5884 5884 5883 5883 5883 5882 5882 5881 5880 5879 5877 5876 5875 5873 5872 5870 5868 5866 5864 5862 5861 5860 5859 5857
5843 5845 5847 5849 5851 5854 5856 5857 5860 5862 5864 5866 5868 5870 5872 5874 5876 5877 5879 5880 5881 5881 5882 5882 5882 5883 5883 5883 5883 5882 5882 5881 5881 5879 5878 5877 5876 5875 5874 5872 5871 5869 5867 5865 5863 5861 5860 5859 5858
5843 5846 5848 5849 5851 5853 5855 5857 5859 5861 5863 5865 5867 5868 5870 5873 5875 5876 5877 5878 5879 5880 5880 5881 5881 5882 5882 5882 5882 5881 5881 5880 5880 5879 5878 5877 5876 5875 5874 5873 5871 5869 5868 5866 5864 5862 5860 5859 5858
5843 5846 5848 5850 5852 5853 5856 5857 5859 5860 5862 5864 5865 5867 5869 5871 5873 5875 5876 5877 5878 5878 5879 5880 5880 5880 5880 5880 5880 5880 5880 5880 5879 5878 5877 5877 5876 5875 5873 5872 5871 5870 5868 5866 5864 5862 5861 5860 5859
5844 5846 5848 5850 5852 5854 5855 5857 5859 5859 5861 5863 5865 5866 5868 5870 5871 5873 5874 5875 5876 5877 5877 5878 5878 5878 5879 5879 5879 5879 5879 5878 5878 5877 5876 5876 5875 5874 5873 5872 5871 5869 5868 5867 5865 5863 5861 5860 5859
5845 5847 5849 5850 5852 5854 5855 5857 5858 5859 5860 5862 5863 5865 5867 5868 5870 5871 5872 5873 5874 5875 5876 5876 5877 5877 5877 5877 5877 5877 5877 5877 5876 5876 5875 5875 5874 5874 5873 5872 5871 5869 5868 5867 5865 5864 5862 5861 5859
5846 5848 5850 5851 5852 5854 5855 5856 5857 5858 5859 5860 5862 5863 5865 5867 5868 5869 5870 5871 5872 5873 5874 5874 5875 5875 5875 5875 5875 5875 5875 5875 5875 5874 5874 5874 5873 5873 5872 5871 5871 5869 5868 5867 5865 5864 5862 5861 5860
5845 5848 5850 5852 5852 5853 5854 5855 5857 5857 5858 5859 5860 5862 5864 5865 5867 5868 5869 5870 5870 5871 5871 5872 5872 5873 5873 5873 5873 5873 5873 5872 5872 5872 5872 5872 5872 5872 5871 5871 5870 5869 5868 5867 5865 5864 5863 5861 5860
5845 5847 5849 5850 5851 5853 5854 5855 5856 5856 5857 5858 5859 5861 5862 5864 5865 5866 5867 5868 5868 5868 5869 5869 5870 5870 5871 5871 5871 5871 5870 5870 5870 5870 5870 5870 5870 5870 5870 5869 5869 5868 5867 5866 5865 5864 5862 5861 5860
5846 5847 5849 5850 5852 5853 5855 5854 5855 5855 5856 5857 5858 5860 5861 5862 5863 5864 5865 5865 5865 5866 5866 5867 5868 5868 5869 5869 5869 5868 5867 5867 5867 5867 5867 5868 5868 5868 5868 5868 5868 5867 5866 5865 5864 5863 5861 5860 5859
5846 5848 5848 5850 5851 5852 5853 5856 5854 5855 5855 5856 5857 5858 5859 5860 5861 5862 5863 5863 5863 5864 5864 5865 5866 5867 5867 5867 5866 5865 5865 5864 5864 5863 5864 5865 5866 5866 5866 5866 5866 5866 5865 5864 5863 5861 5860 5859 5857
5845 5847 5848 5850 5851 5852 5853 5856 5853 5854 5854 5855 5856 5857 5858 5858 5859 5860 5860 5861 5861 5862 5863 5864 5864 5865 5865 5865 5864 5863 5862 5861 5861 5861 5861 5862 5863 5864 5864 5864 5864 5863 5863 5862 5861 5859 5858 5857 5855